Location: Vancouver
(49.2500°N, 123.1330°W)
Time: 10:14:17
(UTC-07:00)

YAOGAN 6 - Visible Passes

Search period start: 27 July 2016 00:00
Search period end: 06 August 2016 00:00
Orbit: 470 x 512 km, 97.2° (Epoch: 27 July)

Date Brightness Start Highest point End Pass type
(mag) Time Alt. Az. Time Alt. Az. Time Alt. Az.
27 Jul 2.5 21:53:25 10° SSE 21:56:55 68° ENE 22:00:26 10° N visible
27 Jul 5.6 23:30:52 10° W 23:30:58 10° W 23:31:02 10° W visible
28 Jul 5.0 23:05:50 10° SW 23:08:16 18° W 23:10:44 10° NW visible
29 Jul 4.1 22:42:31 10° SSW 22:45:39 30° W 22:48:50 10° NNW visible
30 Jul 3.0 22:19:45 11° S 22:23:07 56° W 22:26:38 10° NNW visible
31 Jul 2.5 21:57:08 10° SSE 22:00:38 76° ENE 22:04:12 10° N visible
01 Aug 3.1 21:34:55 10° SE 21:38:14 40° ENE 21:41:36 10° N visible
01 Aug 5.1 23:09:48 10° SW 23:12:03 16° W 23:14:19 10° NW visible
02 Aug 4.3 22:46:23 10° SSW 22:49:24 27° W 22:52:31 10° NW visible
03 Aug 3.3 22:23:46 12° S 22:26:51 50° W 22:30:20 10° NNW visible
04 Aug 2.5 22:01:08 12° SSE 22:04:21 85° E 22:07:57 10° NNW visible
05 Aug 3.0 21:38:32 10° SE 21:41:56 45° ENE 21:45:23 10° N visible
05 Aug 5.2 23:13:45 10° SW 23:15:48 15° W 23:17:52 10° NW visible
